Other Public Products
Issued by NWS Grand Forks, ND

Home | Current Version | Previous Version | Graphics & Text | Print | Product List | Glossary On
Versions: 1 2 3 4 5 6 7 8 9 10 11 12 13 14 15 16 17 18 19 20 21 22 23 24 25 26 27 28 29 30 31 32 33 34 35 36 37 38 39 40 41 42 43 44 45 46 47 48 49 50
000
FPUS83 KFGF 170831
OPUFGF
PRAIRIE TO PINES WEATHER ROUNDUP
NATIONAL WEATHER SERVICE EASTERN NORTH DAKOTA/GRAND FORKS ND
300 AM CDT THU APR 17 2014

 **SATELLITE DATA USED TO AUGMENT SKY COVER AT AUTOMATED STATIONS**
 *****  WEATHER ACROSS EASTERN NORTH DAKOTA  *****

CITY           SKY/WX    TMP DP  RH WIND       PRES   REMARKS
GRAND FORKS    CLEAR     23  19  85 NW8       30.28S WCI  14
GRAND FORKS AF CLEAR     23  17  77 N10       30.32S WCI  12
GRAND CITY NWS   N/A     25 N/A N/A VRB6        N/A  WCI  18
BUXTON           N/A     26  25  98 NW9         N/A  WCI  16
DEVILS LAKE    CLEAR     19  10  68 N7        30.31F WCI  10
FARGO          CLEAR     24  17  74 N7        30.27R WCI  16
WAHPETON ARPT  SUNNY     28  19  69 N6        30.25S WCI  22
$$

 *****  WEATHER ACROSS CENTRAL AND WESTERN NORTH DAKOTA  *****

CITY           SKY/WX    TMP DP  RH WIND       PRES   REMARKS
JAMESTOWN      CLEAR     21  18  88 N6        30.27S WCI  13
BISMARCK       CLOUDY    28  16  60 E6        30.29S WCI  22
MINOT          CLOUDY    23  14  68 E7        30.31S WCI  15
MINOT AFB      CLOUDY    23  14  69 E9        30.31F WCI  13
GARRISON         N/A     25  14  63 E14       30.28S WCI  13
WILLISTON        N/A    N/A N/A N/A MISG      30.25F
DICKINSON      CLOUDY    26  21  81 E7        30.18F WCI  18
HETTINGER      CLOUDY    28  21  75 E6        30.20F WCI  22
$$

 *****  OTHER OBSERVATIONS NORTHEAST NORTH DAKOTA  *****

CITY           SKY/WX    TMP DP  RH WIND       PRES   REMARKS
WALHALLA       FAIR      19  16  86 NW7       30.37F WCI  10
LANGDON        FAIR      19  10  68 NE13      30.31F WCI   7
CAVALIER       FAIR      23  14  68 N12       30.36S WCI  12
GRAFTON        FAIR      23  16  74 N10       30.34S WCI  12
CANDO          FAIR      16  12  86 N8        30.34S WCI   5
FORT TOTTEN      N/A     20  11  69 N5        29.95S WCI  13
ROLLA          FAIR      18  10  73 N6        30.33F WCI   9
RUGBY          FAIR      18  14  86 E10       30.32S WCI   6
 ***** THE ABOVE OBSERVATIONS ARE NON NWS ARE NOT QUALITY
        CONTROLLED AND MAY MIS-REPORT RAIN FOR SNOW...
$$

 *****  OTHER OBSERVATIONS SOUTHEAST NORTH DAKOTA *****

CITY           SKY/WX    TMP DP  RH WIND       PRES   REMARKS
COOPERSTOWN    FAIR      23  21  93 N12       30.28S WCI  12
VALLEY CITY    NOT AVBL
OAKES          FAIR      21  16  79 N8        30.26R WCI  12
GWINNER        SUNNY     25  19  80 N9        30.27R WCI  15
BUFFALO          N/A     25  17  73 N8          N/A  WCI  16
WYNDMERE       NOT AVBL
 ***** THE ABOVE OBSERVATIONS ARE NON NWS ARE NOT QUALITY
       CONTROLLED AND MAY MIS-REPORT RAIN FOR SNOW...
$$

  *****  WEATHER ACROSS NORTHERN MINNESOTA  *****

CITY           SKY/WX    TMP DP  RH WIND       PRES   REMARKS
FLAG ISLAND    CLEAR     19   5  53 N5        30.31S WCI  13
WARROAD        CLEAR     21   9  58 N8        30.31S WCI  12
ROSEAU         CLEAR     21  10  63 N7        30.31S WCI  13
HALLOCK        CLOUDY    23  12  63 N6        30.33S WCI  16
THF RVR FALLS  CLEAR     25  12  58 N9        30.29S WCI  15
HALSTAD          N/A     25  18  74 N9          N/A  WCI  15
FOSSTON        CLEAR     21  10  63 N6        30.25S WCI  14
BAUDETTE       CLEAR     24   6  46 NE8       30.28S WCI  15
WASKISH        CLEAR     21   9  58 N6        30.26S WCI  14
CROOKSTON      CLEAR     25  18  74 N7        30.30F WCI  17
$$
  *****  WEATHER ACROSS CENTRAL AND WEST MINNESOTA  *****

CITY           SKY/WX    TMP DP  RH WIND       PRES   REMARKS
BEMIDJI        CLEAR     21   8  58 N6        30.22S WCI  13
PARK RAPIDS    CLEAR     23  18  81 N7        30.19S WCI  15
WADENA         CLEAR     21  18  86 N8        30.18S WCI  12
DETROIT LAKES  CLEAR     27  19  74 N3        30.23S
MOORHEAD       CLEAR     27  23  86 VRB6      30.27S WCI  20
FERGUS FALLS   CLEAR     25  18  74 N7        30.21S WCI  17
ELBOW LAKE     FAIR      22  19  85 N8        30.20R WCI  13
MORRIS MN      CLEAR     21  18  86 N10       30.19R WCI  10
STAPLES        CLEAR     19  16  86 N9        30.17S WCI   9
WHEATON        CLEAR     25  21  86 N5        30.25S WCI  19
$$
  *****  WEATHER ELSEWHERE ACROSS MINNESOTA  *****

CITY           SKY/WX    TMP DP  RH WIND       PRES   REMARKS
DULUTH         LGT SNOW  29  25  85 NE15      30.10S VSB 3/4 WCI  18
INTRNTL FALLS  CLEAR     24   7  48 NE6       30.26S WCI  17
ELY            FLURRIES  23  19  86 NE7       30.18F WCI  15
CLOQUET        LGT SNOW  27  25  93 N6        30.10F WCI  20
BRAINERD       MOCLDY    29  19  66 N10       30.15R WCI  20
HIBBING        FLURRIES  26  20  77 NE9       30.16F WCI  17
ALEXANDRIA     CLEAR     23  17  78 N13       30.16R WCI  11
SAINT CLOUD    CLOUDY    28  22  78 N13       30.09S WCI  17
MINNEAPOLIS    CLOUDY    28  28 100 N16G24    30.01R WCI  16
$$

  *****  WEATHER ACROSS SOUTH DAKOTA  *****

CITY           SKY/WX    TMP DP  RH WIND       PRES   REMARKS
SIOUX FALLS    CLOUDY    27  23  85 N12       30.18S WCI  17
BROOKINGS      NOT AVBL
WATERTOWN      CLEAR     19  16  88 NW10      30.19R WCI   7
HURON          CLEAR     19  15  84 NW9       30.24F WCI   8
SISSETON         N/A     20  17  88 N10       30.23S WCI   9
ABERDEEN       CLEAR     18  15  88 N7        30.26S WCI   9
MITCHELL       CLEAR     23  21  92 NW9       30.24S WCI  13
PIERRE         PTCLDY    26  20  77 CALM      30.23F
MOBRIDGE       MOCLDY    26  17  68 E13       30.23S WCI  15
RAPID CITY     CLOUDY    30  25  81 S8        30.17S WCI  22
$$

  *****  SOME WEATHER IN NEARBY STATES *****

CITY           SKY/WX    TMP DP  RH WIND       PRES   REMARKS
GLASGOW MT     CLEAR     23  18  81 E14       30.15F WCI  11
GREAT FALLS MT MOCLDY    34  28  79 S10       29.92F
CHEYENNE WY    PTCLDY    31  29  92 SE13      30.07F WCI  21
SCOTTSBLUFF NE CLOUDY    34  28  79 E12       30.15F
OMAHA NE       CLOUDY    35  27  72 N18G29    30.16R WCI  24
DES MOINES IA  CLOUDY    37  30  75 NW17      30.09R
DAVENPORT IA   MOCLDY    47  27  45 S21G29    30.00R
CHICAGO IL     MOCLDY    41  23  48 S12       30.14S
EAU CLAIRE WI  CLOUDY    39  36  89 NE8       29.93S
LA CROSSE WI   CLOUDY    50  28  42 S20G28    29.87F
$$

  *****  SOME NATIONAL WEATHER *****

CITY           SKY/WX    TMP DP  RH WIND       PRES   REMARKS
LA GUARDIA NY  PTCLDY    38  21  50 NE16      30.63R
RALEIGH NC     CLEAR     35  28  75 NE5       30.48S
ATLANTA GA     MOCLDY    43  31  62 E12       30.33S
NEW ORLEANS LA CLOUDY    55  49  80 E3        30.12F
OKLAHOMA CITY  PTCLDY    47  36  65 S8        30.04F
ALBUQUERQUE NM MOCLDY    56  26  31 E9        30.00S
SALT LAKE CITY PTCLDY    41  18  39 SE7       30.02F
LOS ANGELES CA MOCLDY    59  54  82 E6        29.87S
BOISE ID       CLEAR     46  20  35 SE9       30.00R
SEATTLE WA     LGT RAIN  50  48  93 S8        29.93F
$$

*** WEATHER ACROSS MANITOBA...SASKATCHEWAN AND ONTARIO ***
                ***ONTARIO***

CITY           SKY/WX    TMP DP  RH WIND       PRES   REMARKS
GERALDTON      PTCLDY     9   3  78 NE2       30.39S
THUNDER BAY    LGT SNOW  27  25  93 NE17      30.31F WCI  14
SIOUX LOOKOUT  PTCLDY    16   1  53 NE5       30.33F WCI   9
TORONTO        PTCLDY    30  21  69 E6        30.53F WCI  24
BIG TROUT LK   CLEAR     -2  -8  78 CALM      30.39S
PICKLE LAKE    NOT AVBL
DRYDEN         PTCLDY    16   1  53 E6        30.31S WCI   7
KENORA         CLEAR     19   1  45 NE7       30.32S WCI  10
$$
                *** MANITOBA***

CITY           SKY/WX    TMP DP  RH WIND       PRES   REMARKS
BRANDON        CLEAR     16   9  73 NE7       30.39F WCI   6
DAUPHIN        CLEAR     18  14  86 CALM      30.42S
ISLAND LAKE    CLEAR      5   1  85 S2        30.41S
PILOT MOUND      N/A     14   9  79 N6          N/A  WCI   5
THE PAS        PTCLDY     7   1  78 SE2       30.40F
THOMPSON       CLEAR     -2  -6  84 W3        30.38S
WINNIPEG       CLEAR     16   7  67 NE9       30.40  WCI   4
LYNN LAKE      CLEAR      1  -8  66 SW7       30.33S WCI -11
CHURCHILL      PTCLDY    14   1  57 W20G26    30.17F WCI  -3
GILLAM         CLEAR      9   1  72 W8        30.33F WCI  -4
$$
                ***SASKATCHEWAN***

CITY           SKY/WX    TMP DP  RH WIND       PRES   REMARKS
ESTEVAN        MOCLDY    21  14  73 E13       30.30  WCI   9
KINDERSLEY     LGT SNOW  25  23  93 SE17G24   30.06F WCI  11
LLOYDMINSTER   MOCLDY    23  19  86 E13       30.09F WCI  11
PRINCE ALBERT  CLEAR     14   5  67 E7        30.30F WCI   4
REGINA         PTCLDY    21  18  86 SE10      30.26F WCI  10
YORKTON        CLEAR     18   9  68 SE7       30.34S WCI   8



USA.gov is the U.S. government's official web portal to all federal, state and local government web resources and services.